Regional Weather Roundup
Issued by NWS

Home | Current Version | Previous Version | Text Only | Print | Product List | Glossary Off
Versions: 1 2 3 4 5 6 7 8 9 10 11 12 13 14 15 16 17 18 19 20 21 22 23 24 25 26 27 28

000
ASUS45 KTFX 231010
RWRMT
MONTANA REGIONAL WEATHER ROUNDUP
NATIONAL WEATHER SERVICE GREAT FALLS MT
300 AM MST THU FEB 23 2017

NOTE: "FAIR" INDICATES FEW OR NO CLOUDS BELOW 12000 FEET WITH NO
SIGNIFICANT WEATHER AND/OR OBSTRUCTIONS TO VISIBILITY.

MTZ001>007-043-231100-
WEST OF THE DIVIDE

CITY           SKY/WX    TMP DP  RH WIND       PRES   REMARKS
KALISPELL      PTCLDY    21  17  84 N8        29.94S WCI  11
MISSOULA       FLURRIES  30  28  92 CALM      29.92F
BUTTE          CLOUDY    25  17  72 N9        29.77F WCI  15
MULLAN PASS    CLOUDY    20  17  88 N5        29.82F FOG
ANACONDA         N/A     27  19  74 N13       29.82F WCI  16
DEER LODGE       N/A     28  19  69 N8        29.87F WCI  20
EUREKA           N/A     19  18  93 CALM      30.00S
HAMILTON         N/A     30  27  86 NW7       29.87F WCI  23
LIBBY            N/A     19  18  93 CALM      29.99S
PLAINS           N/A     31  25  78 CALM      29.97
RONAN            N/A     23  19  85 CALM      29.96S
$$

MTZ008-052>055-231100-
SOUTHWEST MONTANA

CITY           SKY/WX    TMP DP  RH WIND       PRES   REMARKS
BOZEMAN        LGT SNOW  29  25  85 NW5       29.80F FOG
DILLON         CLOUDY    26  19  74 NE16      29.74S WCI  14
W YELLOWSTONE  CLOUDY     9   5  85 CALM      29.69F
ENNIS          CLOUDY    23  21  93 N10       29.78F WCI  12
THREE FORKS      N/A     30  -8  19 N13       29.83S WCI  20
TWIN BRIDGES     N/A     27  17  65 N18       29.76F WCI  14
$$

MTZ009-010-012-014-046-048-049-054-231100-
EAST SLOPES AND CENTRAL MONTANA

CITY           SKY/WX    TMP DP  RH WIND       PRES   REMARKS
CUT BANK       CLOUDY    22  20  92 NE14      29.95F WCI   9
GREAT FALLS    LGT SNOW  28  26  92 N8        29.93S FOG     WCI  20
MALMSTROM AFB  FLURRIES  28  28  99 NE7       29.94F WCI  21
HELENA         CLOUDY    30  23  75 NW7       29.88F WCI  23
AUGUSTA        FLURRIES  26  25  98 NE9       29.90F WCI  16
BOWMANS CRNR   FLURRIES  24  24  99 NE8       29.89S WCI  15
CHOTEAU          N/A     27  27 100 NE6       29.95F WCI  20
CONRAD           N/A     26  26 100 N8        29.98S WCI  18
POWER          FLURRIES  26  26  99 N8        29.93S WCI  17
RAYNESFORD     FLURRIES  27  26  96 NW8       29.91F WCI  19
ULM            FLURRIES  28  27  95 MISG      29.93S
$$

MTZ011-013-016-021-045-047-050-051-231100-
NORTH CENTRAL MONTANA

CITY           SKY/WX    TMP DP  RH WIND       PRES   REMARKS
HAVRE          CLOUDY    27  24  89 NE12      30.00S WCI  17
LEWISTOWN      FOG       25  24  96 W9        29.87F VSB 3/4 WCI  15
N BAR RANCH    LGT SNOW  25  23  93 CALM      29.89F
CHINOOK          N/A     27  27 100 N7        30.00F WCI  19
DENTON         CLOUDY    26  25  96 NE9       29.89R WCI  16
GEYSER         FLURRIES  26  25  96 NE8       29.90S WCI  17
GRASS RANGE    FLURRIES  26  26  99 NE6       29.87F WCI  20
JUDITH GAP     FLURRIES  25  24  96 N16       29.85F WCI  12
ROY            CLOUDY    26  25  97 MISG      29.91S
STANFORD       SNOWSHWR  26  26 100 N10       29.88F VSB 3/8 WCI  15
WINIFRED       MOCLDY    25  25  99 NE14      29.91R FOG     WCI  14
$$

MTZ017>020-022>027-061-062-231100-
NORTHEAST MONTANA

CITY           SKY/WX    TMP DP  RH WIND       PRES   REMARKS
GLASGOW        CLOUDY    25  23  92 CALM      30.00R FOG
JORDAN           N/A     20  16  84 N5        29.96F
SIDNEY         CLOUDY    26  25  96 NW3       30.02R
WOLF POINT     CLOUDY    27  24  89 W3        30.02R
PLENTYWOOD       N/A     30  27  86 CALM      29.99R
POPLAR           N/A     27  25  93 SE5       30.02S
SCOBEY           N/A     29  21  71 CALM      29.96S
$$

MTZ028>42-056>058-231100-
SOUTHCENTRAL AND SOUTHEAST MONTANA

CITY           SKY/WX    TMP DP  RH WIND       PRES   REMARKS
BAKER          CLOUDY    26  23  88 E8        29.95R WCI  18
BILLINGS       FLURRIES  29  27  92 NE10      29.89S WCI  20
LIVINGSTON     FLURRIES  28  24  85 E16       29.80F WCI  16
MILES CITY     CLOUDY    29  24  82 NE7       29.96R WCI  22
BIG TIMBER     CLOUDY    28  27  93 E8        29.87S WCI  20
EKALAKA          N/A     26  23  88 E6        29.89R WCI  19
FORSYTH          N/A     28  27  93 E8        29.95S WCI  20
HARLOWTON      FLURRIES  27  23  87 NE16      29.85F WCI  14
LAUREL           N/A     29  26  88 CALM      29.88R
$$

REGIONAL REPORTS...DAKOTAS

CITY           SKY/WX    TMP DP  RH WIND       PRES   REMARKS
WILLISTON      CLOUDY    28  26  92 SW5       30.01R
MINOT          FLURRIES  31  28  89 SW7       29.97R WCI  24
DICKINSON      CLOUDY    23  21  92 CALM      29.95F
BEACH            N/A    N/A N/A N/A MISG        N/A
CROSBY         CLOUDY    30  30 100 N12       30.01R WCI  21
TIOGA          CLOUDY    27  27 100 SW7       29.99R WCI  19
WATFORD CITY   FOG       23  23 100 CALM      30.01R VSB 1
BISMARCK       CLOUDY    28  26  92 CALM      30.01R
GRAND FORKS    CLOUDY    29  22  75 N7        29.99R WCI  22
FARGO          CLEAR     26  23  88 NW8       29.98S WCI  18
BUFFALO SD       N/A     28  26  92 E9        29.86S WCI  19
RAPID CITY     LGT SNOW  29  28  96 NE10      29.87F FOG     WCI  20
$$

REGIONAL REPORTS...WYOMING/IDAHO/WASHINGTON

CITY           SKY/WX    TMP DP  RH WIND       PRES   REMARKS
GILLETTE       CLOUDY    29  26  89 NE8       29.81F WCI  21
SHERIDAN       CLOUDY    30  26  85 E7        29.84F WCI  23
BUFFALO WY     CLOUDY    28  24  85 NE6       29.81F WCI  22
CODY           CLOUDY    26  23  88 N14G22    29.77F WCI  14
YELLOWSTONE LA   N/A      5   2  87 VRB3      29.66F
IDAHO FALLS    CLOUDY    29  24  82 NW3       29.64F
SALMON         CLOUDY    30  27  86 CALM      29.76R
BOISE          CLOUDY    32  25  75 NW17      29.81F WCI  21
SPOKANE        PTCLDY    21  18  88 W5        30.01S
$$

REGIONAL REPORTS...ALBERTA

CITY           SKY/WX    TMP DP  RH WIND       PRES   REMARKS
EDMONTON       CLOUDY    21  16  79 W3        30.07F
CALGARY        MOCLDY    21  18  86 E5        30.02S FOG
LETHBRIDGE     FLURRIES  25  25 100 NE5       30.04S
MEDICINE HAT   CLEAR     19  18  93 NE3       30.07F FOG
WATERTON GATE    N/A     19  18  93 N5          N/A
MILK RIVER       N/A     21  19  93 NE9         N/A  WCI  11
$$

REGIONAL REPORTS...SASKATCHEWAN

CITY           SKY/WX    TMP DP  RH WIND       PRES   REMARKS
SWIFT CURRENT  CLOUDY    19  18  93 N6        30.03R WCI  11
REGINA         MOCLDY    23  16  74 N15       30.04F WCI  10
SASKATOON      MOCLDY    23  18  80 W8        30.07F WCI  14
CYPRESS HILLS    N/A     16  12  86 N7          N/A  WCI   6
ROCKGLEN         N/A     25  25 100 N8          N/A  WCI  16
ASSINIBOIA       N/A     21  18  86 SW1         N/A
$$




USA.gov is the U.S. government's official web portal to all federal, state and local government web resources and services.